CW9669 Weather Reports


Display with metric or nautical units.
time (UTC)temp
F
wind
direction
speed
MPH
gust
MPH
rain 1hr
in
rain 24hr
in
rain mn
in
humidity
%
barometer
mb
20260902065549 60 293 0.0 0.0 0.00 0.00 0.00 80 1010.4
20260902064552 61 293 0.0 0.0 0.00 0.00 0.00 80 1010.4
20260902063552 61 293 0.0 0.0 0.00 0.00 0.00 80 1010.4
20260902062549 61 293 0.0 0.0 0.00 0.00 0.00 80 1010.7
20260902061549 61 293 0.0 1.0 0.00 0.00 0.00 80 1011.0
20260902060549 61 292 0.0 1.0 0.00 0.00 0.00 79 1011.0
20260902055551 62 273 0.0 2.0 0.00 0.00 0.00 79 1011.1
20260902054549 62 302 0.0 2.0 0.00 0.00 0.00 78 1011.2
20260902053553 62 300 0.0 1.0 0.00 0.00 0.00 79 1011.3
20260902052551 62 300 0.0 1.0 0.00 0.00 0.00 78 1011.3
20260902051553 62 321 0.0 0.0 0.00 0.00 0.00 78 1011.3
20260902051033 62 321 0.0 1.0 0.00 0.00 0.00 78 1011.4
20260902045553 62 303 0.0 0.0 0.00 0.00 0.00 77 1011.4
20260902044550 62 303 0.0 1.0 0.00 0.00 0.00 77 1011.4
20260902044035 62 327 0.0 1.0 0.00 0.00 0.00 77 1011.5
20260902042549 62 333 0.0 0.0 0.00 0.00 0.00 77 1011.4
20260902041545 63 333 0.0 0.0 0.00 0.00 0.00 76 1011.2
20260902040547 63 333 0.0 0.0 0.00 0.00 0.00 76 1011.1
20260902035549 63 327 0.0 1.0 0.00 0.00 0.00 75 1010.9
20260902034547 63 339 0.0 3.0 0.00 0.00 0.00 75 1010.8
20260902033546 63 343 1.0 3.0 0.00 0.00 0.00 74 1010.8
20260902032546 64 315 0.0 3.0 0.00 0.00 0.00 74 1010.9
20260902032026 64 319 1.0 2.0 0.00 0.00 0.00 73 1010.8
20260902030546 64 309 1.0 5.0 0.00 0.00 0.00 73 1010.7
20260902025546 64 332 1.0 3.0 0.00 0.00 0.00 72 1010.7
20260902024548 64 300 1.0 4.0 0.00 0.00 0.00 72 1010.8
20260902023549 65 316 0.0 3.0 0.00 0.00 0.00 72 1010.8
20260902022546 65 312 1.0 6.0 0.00 0.00 0.00 71 1010.9
20260902021546 65 278 2.0 5.0 0.00 0.00 0.00 71 1010.7
20260902020545 65 312 1.0 8.0 0.00 0.00 0.00 70 1010.7
20260902020033 65 286 1.0 5.0 0.00 0.00 0.00 70 1010.6
20260902015033 65 355 2.0 7.0 0.00 0.00 0.00 70 1010.6
20260902013545 66 321 2.0 5.0 0.00 0.00 0.00 69 1010.5
20260902012548 66 330 1.0 4.0 0.00 0.00 0.00 68 1010.5
20260902011541 66 327 1.0 5.0 0.00 0.00 0.00 68 1010.5
20260902010541 66 254 1.0 3.0 0.00 0.00 0.00 68 1010.5
20260902005542 66 293 1.0 5.0 0.00 0.00 0.00 68 1010.5
20260902004543 66 304 2.0 8.0 0.00 0.00 0.00 68 1010.4
20260902003541 67 294 2.0 6.0 0.00 0.00 0.00 67 1010.3
20260902002542 67 298 1.0 5.0 0.00 0.00 0.00 66 1010.4
20260902001543 67 304 1.0 5.0 0.00 0.00 0.00 66 1010.3
20260902000541 67 347 1.0 4.0 0.00 0.00 0.00 66 1010.3
20260902000516 67 303 2.0 6.0 0.00 0.00 0.00 67 1010.2
20260901234541 67 294 2.0 9.0 0.00 0.00 0.00 66 1010.2
20260901233541 67 303 3.0 11.0 0.00 0.00 0.00 65 1010.3
20260901232541 69 343 2.0 8.0 0.00 0.00 0.00 63 1010.3
20260901231543 69 323 1.0 7.0 0.00 0.00 0.00 62 1010.2
20260901230539 69 349 1.0 4.0 0.00 0.00 0.00 61 1010.2
20260901230015 69 222 0.0 3.0 0.00 0.00 0.00 61 1010.3
20260901224541 68 190 1.0 6.0 0.00 0.00 0.00 63 1010.3
20260901223540 68 245 0.0 3.0 0.00 0.00 0.00 62 1010.5
20260901223021 68 282 0.0 3.0 0.00 0.00 0.00 63 1010.6
20260901221539 68 262 1.0 2.0 0.00 0.00 0.00 62 1010.6
20260901221016 68 202 1.0 5.0 0.00 0.00 0.00 62 1010.5
20260901220448 68 292 0.0 2.0 0.00 0.00 0.00 62 1010.5
20260901214537 68 147 1.0 3.0 0.00 0.00 0.00 62 1010.5
20260901213536 68 211 0.0 2.0 0.00 0.00 0.00 61 1010.3
20260901212536 68 271 1.0 3.0 0.00 0.00 0.00 61 1010.5
20260901212030 68 152 0.0 3.0 0.00 0.00 0.00 62 1010.6
20260901210536 68 296 0.0 3.0 0.00 0.00 0.00 61 1010.6
20260901205535 68 294 0.0 2.0 0.00 0.00 0.00 61 1010.6
20260901204535 68 219 1.0 4.0 0.00 0.00 0.00 60 1010.6
20260901203536 68 218 1.0 5.0 0.00 0.00 0.00 60 1010.5
20260901202536 68 256 2.0 5.0 0.00 0.00 0.00 60 1010.6
20260901201537 69 215 2.0 9.0 0.00 0.00 0.00 59 1010.7
20260901200536 69 198 2.0 8.0 0.00 0.00 0.00 59 1010.7
20260901200024 68 163 2.0 5.0 0.00 0.00 0.00 62 1010.8
20260901194535 68 225 1.0 8.0 0.00 0.00 0.00 62 1010.9
20260901193536 67 242 1.0 6.0 0.00 0.00 0.00 64 1010.9
20260901192536 66 255 2.0 6.0 0.00 0.00 0.00 65 1011.0
20260901191537 66 231 2.0 7.0 0.00 0.00 0.00 65 1011.0
20260901190539 66 202 1.0 4.0 0.00 0.00 0.00 67 1011.2
20260901185538 65 299 1.0 5.0 0.00 0.00 0.00 69 1011.3
20260901184536 65 231 1.0 4.0 0.00 0.00 0.00 70 1011.4
20260901183535 64 156 0.0 3.0 0.00 0.00 0.00 72 1011.4
20260901182533 64 149 1.0 4.0 0.00 0.00 0.00 73 1011.3
20260901181534 64 233 1.0 5.0 0.00 0.00 0.00 73 1011.4
20260901180534 64 194 0.0 3.0 0.00 0.00 0.00 74 1011.3
20260901175534 63 138 1.0 3.0 0.00 0.00 0.00 74 1011.3
20260901174533 63 202 1.0 4.0 0.00 0.00 0.00 75 1011.3
20260901173533 63 163 1.0 3.0 0.00 0.00 0.00 75 1011.3
20260901173019 63 234 1.0 4.0 0.00 0.00 0.00 76 1011.3
20260901172011 63 143 0.0 2.0 0.00 0.00 0.00 76 1011.3
20260901170532 63 291 0.0 3.0 0.00 0.00 0.00 76 1011.3
20260901165531 62 277 0.0 2.0 0.00 0.00 0.00 79 1011.2
20260901164532 61 291 0.0 1.0 0.00 0.00 0.00 81 1011.2
20260901163533 61 225 0.0 2.0 0.00 0.00 0.00 81 1011.2
20260901162529 61 198 0.0 3.0 0.00 0.00 0.00 80 1011.2
20260901161530 61 227 0.0 2.0 0.00 0.00 0.00 81 1011.4
20260901160532 61 221 1.0 3.0 0.00 0.00 0.00 80 1011.5
20260901155532 60 219 0.0 2.0 0.00 0.00 0.00 81 1011.4
20260901155016 60 193 0.0 2.0 0.00 0.00 0.00 81 1011.4
20260901153529 60 136 0.0 2.0 0.00 0.00 0.00 81 1011.3
20260901152531 60 154 0.0 0.0 0.00 0.00 0.00 82 1011.4
20260901152013 60 154 0.0 1.0 0.00 0.00 0.00 82 1011.4
20260901150529 60 190 0.0 0.0 0.00 0.00 0.00 81 1011.3
20260901145529 60 211 0.0 1.0 0.00 0.00 0.00 81 1011.3
20260901145453 60 251 0.0 1.0 0.00 0.00 0.00 81 1011.2
20260901143531 60 148 0.0 0.0 0.00 0.00 0.00 82 1011.1
20260901142529 60 163 0.0 1.0 0.00 0.00 0.00 82 1011.0
20260901142451 59 163 0.0 2.0 0.00 0.00 0.00 82 1010.9
20260901140529 59 155 0.0 1.0 0.00 0.00 0.00 83 1010.9
20260901135528 59 184 0.0 0.0 0.00 0.00 0.00 83 1010.9
20260901134526 59 185 0.0 1.0 0.00 0.00 0.00 83 1010.8
20260901133523 59 132 0.0 1.0 0.00 0.00 0.00 83 1010.8
20260901132522 59 196 0.0 0.0 0.00 0.00 0.00 83 1010.8
20260901131522 59 158 0.0 2.0 0.00 0.00 0.00 82 1010.7
20260901130519 59 202 0.0 4.0 0.00 0.00 0.00 82 1010.8
20260901125955 59 218 0.0 1.0 0.00 0.00 0.00 81 1010.8
20260901124957 60 155 0.0 0.0 0.00 0.00 0.00 81 1010.7
20260901123518 60 163 0.0 2.0 0.00 0.00 0.00 81 1010.6
20260901122519 60 142 0.0 1.0 0.00 0.00 0.00 80 1010.6
20260901121518 60 96 0.0 2.0 0.00 0.00 0.00 80 1010.6
20260901120517 60 193 0.0 0.0 0.00 0.00 0.00 80 1010.6
20260901115517 60 190 0.0 1.0 0.00 0.00 0.00 80 1010.6
20260901114518 60 132 0.0 1.0 0.00 0.00 0.00 80 1010.6
20260901113959 59 158 0.0 1.0 0.00 0.00 0.00 81 1010.6
20260901112521 59 140 0.0 1.0 0.00 0.00 0.00 81 1010.5
20260901111527 59 153 0.0 0.0 0.00 0.00 0.00 81 1010.5
20260901110515 59 159 0.0 0.0 0.00 0.00 0.00 81 1010.4
20260901105512 59 163 0.0 0.0 0.00 0.00 0.00 80 1010.5
20260901104510 59 164 0.0 1.0 0.00 0.00 0.00 80 1010.5
20260901103512 59 165 0.0 1.0 0.00 0.00 0.00 80 1010.5
20260901102508 59 252 0.0 1.0 0.00 0.00 0.00 80 1010.5
20260901101508 59 126 0.0 0.0 0.00 0.00 0.00 81 1010.4
20260901100509 59 235 0.0 1.0 0.00 0.00 0.00 81 1010.5
20260901095511 59 206 0.0 2.0 0.00 0.00 0.00 81 1010.4
20260901094949 59 111 0.0 2.0 0.00 0.00 0.00 81 1010.4
20260901093505 59 165 0.0 2.0 0.00 0.00 0.00 81 1010.3
20260901092504 59 141 0.0 2.0 0.00 0.00 0.00 81 1010.4
20260901091503 59 139 0.0 2.0 0.00 0.00 0.00 82 1010.5
20260901090503 59 178 0.0 2.0 0.00 0.00 0.00 82 1010.5
20260901085501 58 200 0.0 2.0 0.00 0.00 0.00 83 1010.5
20260901084506 58 147 0.0 2.0 0.00 0.00 0.00 83 1010.6
20260901083501 58 161 0.0 1.0 0.00 0.00 0.00 83 1010.6
20260901082502 58 209 0.0 1.0 0.00 0.00 0.00 83 1010.6
20260901082425 58 144 0.0 3.0 0.00 0.00 0.00 83 1010.5
20260901080501 58 172 0.0 4.0 0.00 0.00 0.00 84 1010.5
20260901075504 57 155 0.0 2.0 0.00 0.00 0.00 84 1010.4
20260901074949 57 228 0.0 3.0 0.00 0.00 0.00 84 1010.3
20260901073459 57 168 0.0 2.0 0.00 0.00 0.00 84 1010.3
20260901072459 57 197 0.0 1.0 0.00 0.00 0.00 84 1010.2
20260901071455 58 148 0.0 0.0 0.00 0.00 0.00 83 1010.3
20260901071033 58 169 0.0 3.0 0.00 0.00 0.00 83 1010.4